Weather in Salyn Tugtun

Russia / Republic of Kalmykia     47°30′16″N   43°52′29″E
temp.,
°C
wind,
m/s
gust,
m/s
humid.,
%
clouds,
%
prec.,
mm/h
press.,
hPa
HPBL,
m
7 may, fri
fri700:00+12sse41060100 0.0 1015182
03:00+11sse41162100 0.0 1015256
06:00+11sse41064100 0.0 1015312
09:00+16s794592 0.0 1016759
12:00+19ssw7737100 0.0 10151290
15:00+20wsw6653100 0.2 10151473
18:00+19w57525 0.1 1015407
21:00+16w33656 0.1 101662
8 may, sat
sat800:00+13nnw34835 0.0 101757
03:00+11ne2291100 0.0 101724
06:00+13e228392 0.0 101870
09:00+18sse22595 0.0 1017682
12:00+22s344277 0.0 10161659
15:00+23s4539100 0.0 10141996
18:00+21ssw3454100 0.0 1013106
21:00+18sse335999 0.0 101235
9 may, sun
sun900:00+16s41162100 0.0 1011242
03:00+14sse5114967 0.0 1010221
06:00+13s61355100 0.0 1011407
09:00+16s4553100 0.0 1010482
12:00+20ssw3448100 0.0 10091205
15:00+18w9770100 0.3 1009761
18:00+8nw111689100 1.4 1013759
21:00+8nw101489100 9.6 1015908
10 may, mon
mon1000:00+8nw61186100 1.2 10161038
03:00+7wnw81287100 2.4 1014843
06:00+7wnw71084100 0.1 10161135
09:00+9w81079100 0.3 1015983
12:00+9w7980100 0.4 10151000
15:00+11w7864100 0.6 10151420
18:00+9w5773100 0.1 10161055
21:00+8sw2675100 0.1 1018645
11 may, tue
tue1100:00+7ssw477996 0.0 1018344
03:00+7s4886100 0.0 1019322
06:00+6s589093 0.0 1020343
09:00+11s346276 0.0 1021887
12:00+14ese5652100 0.0 10221680
15:00+14ese4753100 0.3 10231712
18:00+13e685658 0.0 1022909
21:00+9ne3569100 0.0 102167